Weather History for Crossville, TN

Change the Weather History Date:

Monday, January 14, 2013

  Actual Average Record
Temperature  
Mean Temperature 35 °F 36 °F  
Max Temperature 38 °F 44 °F 65 °F (2007)
Min Temperature 32 °F 27 °F -1 °F (1963)
Degree Days  
Heating Degree Days 30    
Month to date heating degree days 303  
Since 1 July heating degree days 1915  
Cooling Degree Days 0    
Month to date cooling degree days 0  
Year to date cooling degree days 0  
Moisture  
Dew Point 33 °F    
Average Humidity 93    
Maximum Humidity 100    
Minimum Humidity 85    
Precipitation  
Precipitation 0.47 in 0.16 in 1.93 in (1995)
Month to date precipitation 2.82 2.15  
Year to date precipitation 2.82 2.15  
Sea Level Pressure  
Sea Level Pressure 30.21 in    
Wind  
Wind Speed 8 mph (NNE)    
Max Wind Speed 16 mph    
Max Gust Speed 22 mph    
Visibility 4 miles    
Events Fog , Rain    
T = Trace of Precipitation, MM = Missing Value Source: NWS Daily Summary

Daily Weather History Graph

Daily Weather History Graph

Search for Another Location

Airport:

Trip Planner

Search our weather history database for the weather conditions in past years. The results will help you decide how hot, cold, wet, or windy it might be!

Date:

Astronomy

Jan. 14, 2013 Rise Set
Actual Time 6:50 AM CST 4:49 PM CST
Civil Twilight 6:22 AM CST 5:17 PM CST
Nautical Twilight 5:50 AM CST 5:48 PM CST
Astronomical Twilight 5:20 AM CST 6:19 PM CST
Moon 8:31 AM CST (1/14) 8:25 PM CST (1/14)
Length of Visible Light 10h 54m
Length of Day
9h 58m
Waxing Crescent, 11% of the Moon is Illuminated
Jan 14
Waxing Crescent
Jan 18
First Quarter
Jan 26
Full
Feb 3
Last Quarter
Feb 10
New

Hourly Weather History & Observations

Time (CST) Temp. Windchill Dew Point Humidity Pressure Visibility Wind Dir Wind Speed Gust Speed Precip Events Conditions
12:53 AM 37.9 °F 32.1 °F 36.0 °F 93% 30.14 in 10.0 mi NNE 8.1 mph - 0.01 in   Overcast
1:53 AM 37.9 °F 32.7 °F 35.1 °F 89% 30.14 in 10.0 mi NNE 6.9 mph - 0.00 in   Overcast
2:53 AM 37.9 °F 32.7 °F 35.1 °F 89% 30.15 in 10.0 mi North 6.9 mph - N/A   Overcast
3:53 AM 37.0 °F 30.4 °F 34.0 °F 89% 30.14 in 10.0 mi North 9.2 mph - N/A   Overcast
4:53 AM 37.0 °F 30.4 °F 34.0 °F 89% 30.16 in 10.0 mi North 9.2 mph - N/A   Overcast
5:53 AM 36.0 °F 29.0 °F 34.0 °F 93% 30.17 in 2.5 mi NNE 9.2 mph - N/A   Overcast
6:34 AM 35.6 °F 29.9 °F 33.8 °F 93% 30.20 in 1.8 mi North 6.9 mph - N/A   Overcast
6:53 AM 36.0 °F 29.6 °F 34.0 °F 93% 30.20 in 1.8 mi North 8.1 mph - N/A   Overcast
7:53 AM 35.1 °F 28.6 °F 34.0 °F 96% 30.23 in 1.0 mi NNE 8.1 mph - N/A   Overcast
7:57 AM 35.6 °F 29.2 °F 33.8 °F 93% 30.23 in 0.5 mi NNE 8.1 mph - N/A Fog Fog
8:23 AM 35.6 °F 27.5 °F 33.8 °F 93% 30.23 in 0.2 mi NNE 11.5 mph - N/A Fog Fog
8:53 AM 35.1 °F 26.9 °F 34.0 °F 96% 30.24 in 0.2 mi NNE 11.5 mph - N/A Fog Fog
9:34 AM 35.6 °F 27.5 °F 35.6 °F 100% 30.21 in 0.8 mi NE 11.5 mph 17.3 mph N/A   Overcast
9:53 AM 35.1 °F 28.6 °F 34.0 °F 96% 30.24 in 0.5 mi NNE 8.1 mph - N/A Fog Fog
10:08 AM 35.6 °F 28.6 °F 33.8 °F 93% 30.20 in 0.2 mi NNE 9.2 mph - N/A Fog Fog
10:48 AM 35.6 °F 28.0 °F 33.8 °F 93% 30.19 in 0.8 mi NE 10.4 mph - N/A   Mist
10:53 AM 35.1 °F 27.9 °F 34.0 °F 96% 30.20 in 0.8 mi NE 9.2 mph - N/A   Overcast
11:18 AM 35.6 °F 31.7 °F 35.6 °F 100% 30.17 in 1.2 mi ENE 4.6 mph - N/A   Overcast
11:53 AM 36.0 °F 29.6 °F 35.1 °F 97% 30.19 in 1.2 mi North 8.1 mph - N/A   Overcast
12:16 PM 35.6 °F 30.7 °F 35.6 °F 100% 30.13 in 2.0 mi North 5.8 mph - N/A   Overcast
12:24 PM 35.6 °F 29.2 °F 35.6 °F 100% 30.13 in 1.8 mi NNE 8.1 mph 16.1 mph N/A   Overcast
12:33 PM 35.6 °F 29.2 °F 35.6 °F 100% 30.13 in 2.0 mi North 8.1 mph - N/A   Overcast
12:53 PM 36.0 °F 29.6 °F 35.1 °F 97% 30.15 in 3.0 mi North 8.1 mph - N/A   Overcast
1:53 PM 36.0 °F 29.6 °F 34.0 °F 93% 30.18 in 3.0 mi NNE 8.1 mph - 0.00 in   Overcast
2:42 PM 35.6 °F 28.0 °F 33.8 °F 93% 30.22 in 2.5 mi NNW 10.4 mph - 0.04 in Rain Light Rain
2:53 PM 35.1 °F 27.9 °F 33.1 °F 92% 30.25 in 4.0 mi NNW 9.2 mph - 0.05 in Rain Light Rain
3:04 PM 35.6 °F 27.5 °F 33.8 °F 93% 30.22 in 5.0 mi NNW 11.5 mph 19.6 mph 0.01 in Rain Light Rain
3:38 PM 33.8 °F 25.8 °F 30.2 °F 87% 30.24 in 4.0 mi North 10.4 mph - 0.03 in   Overcast
3:53 PM 33.1 °F 24.4 °F 30.9 °F 92% 30.25 in 4.0 mi NNE 11.5 mph - 0.04 in Rain Light Rain
4:12 PM 32.0 °F 23.6 °F 30.2 °F 93% 30.27 in 2.5 mi North 10.4 mph - 0.03 in Rain Light Freezing Rain
4:24 PM 32.0 °F 24.2 °F 30.2 °F 93% 30.26 in 2.5 mi North 9.2 mph 21.9 mph 0.05 in Rain Light Freezing Rain
4:31 PM 32.0 °F 23.6 °F 30.2 °F 93% 30.25 in 4.0 mi North 10.4 mph - 0.06 in Rain Light Freezing Rain
4:53 PM 32.0 °F 22.5 °F 30.0 °F 92% 30.27 in 4.0 mi NE 12.7 mph 19.6 mph 0.10 in Rain Light Freezing Rain
5:35 PM 32.0 °F 23.6 °F 30.2 °F 93% 30.30 in 4.0 mi North 10.4 mph - 0.10 in   Overcast
5:46 PM 32.0 °F 25.6 °F 30.2 °F 93% 30.30 in 4.0 mi North 6.9 mph - 0.13 in   Overcast
5:53 PM 32.0 °F 22.5 °F 30.0 °F 92% 30.32 in 4.0 mi NNE 12.7 mph - 0.15 in   Overcast
6:01 PM 32.0 °F 23.0 °F 30.2 °F 93% 30.27 in 4.0 mi NE 11.5 mph - 0.02 in Rain Light Freezing Rain
6:26 PM 32.0 °F 23.6 °F 30.2 °F 93% 30.26 in 6.0 mi NE 10.4 mph - 0.05 in Rain Light Freezing Rain
6:53 PM 32.0 °F 23.6 °F 30.0 °F 92% 30.26 in 10.0 mi ESE 10.4 mph - 0.06 in Rain Light Freezing Rain
7:53 PM 33.1 °F 28.7 °F 32.0 °F 96% 30.23 in 8.0 mi East 4.6 mph - 0.04 in Rain Light Freezing Rain
8:00 PM 33.8 °F 29.6 °F 32.0 °F 93% 30.19 in 9.0 mi ENE 4.6 mph - 0.00 in   Overcast
8:31 PM 33.8 °F 30.8 °F 32.0 °F 93% 30.18 in 10.0 mi Variable 3.5 mph - 0.00 in   Overcast
8:40 PM 33.8 °F 27.7 °F 32.0 °F 93% 30.17 in 10.0 mi North 6.9 mph - 0.00 in   Overcast
8:48 PM 33.8 °F 29.6 °F 32.0 °F 93% 30.18 in 9.0 mi North 4.6 mph - 0.00 in   Overcast
8:53 PM 33.1 °F 28.7 °F 32.0 °F 96% 30.21 in 9.0 mi NNE 4.6 mph - 0.00 in   Overcast
9:53 PM 33.1 °F 27.7 °F 32.0 °F 96% 30.20 in 10.0 mi ENE 5.8 mph - 0.00 in   Overcast
10:53 PM 33.1 °F 27.7 °F 32.0 °F 96% 30.18 in 6.0 mi ENE 5.8 mph - 0.02 in   Overcast
11:12 PM 33.8 °F 27.0 °F 32.0 °F 93% 30.13 in 2.0 mi ENE 8.1 mph - N/A   Overcast
11:46 PM 33.8 °F 30.8 °F 32.0 °F 93% 30.13 in 1.0 mi East 3.5 mph - N/A   Overcast
11:53 PM 33.1 °F 26.9 °F 32.0 °F 96% 30.17 in 0.8 mi North 6.9 mph - N/A   Mist